Theta_e
294 294 295 295 295 295 295 295 294 294 294 293 293 294 295 296 295 294 292 292 291 290 292 292 292 294 295 295 296 296 294 295 295 295 295 296 297 300 300 301 302 303 302
294 295 295 295 295 295 295 294 294 294 294 294 293 293 295 296 296 295 293 292 292 291 291 292 291 293 294 295 296 295 295 294 294 294 295 295 295 296 298 300 301 301 300
294 295 295 294 294 294 294 294 294 294 293 293 293 293 293 296 297 295 295 292 291 291 291 291 291 292 293 294 295 296 296 296 295 294 294 294 294 295 295 296 297 299 300
294 295 295 294 294 294 294 293 293 293 293 293 292 291 292 294 297 296 295 292 291 292 292 293 293 293 294 293 293 294 295 295 295 295 294 294 294 294 294 295 295 296 297
294 295 294 294 295 294 293 293 293 293 293 293 292 292 292 292 295 297 294 291 291 292 292 292 293 294 294 293 293 292 294 295 295 295 295 294 294 294 294 294 294 294 294
295 295 295 295 295 294 293 294 293 293 293 292 292 292 293 292 294 296 295 292 292 292 292 293 293 294 294 293 293 292 292 292 293 292 292 293 293 293 293 293 293 292 293
296 295 295 296 295 294 294 294 293 293 293 292 292 292 292 292 293 295 296 293 291 292 292 292 292 293 294 293 293 292 292 291 291 291 291 290 291 291 291 291 291 291 290
296 296 296 297 296 294 294 294 293 293 293 293 293 292 292 292 291 292 296 292 291 291 291 292 291 292 294 294 293 292 292 292 291 291 291 290 291 292 292 291 290 289 289
296 296 296 296 296 294 294 293 293 293 293 293 293 292 292 292 292 291 293 291 291 291 290 291 291 292 294 294 293 291 293 292 292 292 291 291 290 290 291 290 290 289 289
296 295 296 296 295 294 293 293 293 293 293 293 292 292 292 292 292 291 291 291 290 290 291 290 290 291 293 293 292 291 292 293 293 293 292 292 291 291 290 290 290 289 289
297 296 295 295 294 294 294 293 293 293 293 293 293 292 292 292 292 292 291 291 291 290 290 291 291 290 290 291 291 291 292 291 292 293 293 293 293 292 291 290 290 290 290
298 297 296 295 295 294 294 293 293 293 294 293 293 293 293 292 292 292 292 291 291 291 290 290 290 290 290 290 290 290 291 291 291 291 292 293 293 293 292 292 291 291 290
298 298 297 296 295 295 294 294 294 294 294 294 293 293 293 293 293 292 292 292 291 291 290 290 289 289 289 290 290 290 290 290 290 292 292 293 293 293 293 293 293 293 292
298 298 298 297 296 295 295 294 294 294 294 293 293 293 293 293 293 293 292 292 292 291 291 290 289 289 289 289 289 289 290 289 289 290 290 292 293 293 293 294 294 293 293
296 297 297 297 297 296 296 295 295 294 294 294 294 293 293 293 293 293 293 292 292 292 291 291 290 289 290 290 289 288 288 288 289 289 289 289 290 290 291 292 292 292 291
295 296 296 296 297 297 297 296 296 296 295 295 294 294 293 293 293 292 292 292 292 292 291 291 290 289 289 290 290 289 288 288 288 289 290 290 289 289 289 289 289 289 289
294 294 294 295 295 295 296 296 296 295 294 294 294 293 292 292 292 291 291 291 290 290 290 290 290 289 289 289 290 291 288 288 287 288 288 288 288 288 288 288 288 288 288
295 294 294 294 294 294 294 295 295 295 294 293 293 292 292 291 291 291 290 290 290 289 289 289 289 289 289 289 289 290 293 290 288 288 288 288 288 288 288 288 288 288 288
297 295 294 293 293 293 293 294 294 294 293 293 292 291 291 291 291 290 290 289 289 289 289 288 288 289 289 289 289 289 291 293 289 288 288 288 288 288 288 287 287 287 287
297 296 295 294 293 293 293 293 293 293 292 292 291 291 291 291 290 290 289 289 289 288 288 288 288 288 288 289 289 289 290 292 292 289 288 288 288 287 287 287 287 287 287
295 296 296 295 293 292 292 292 292 292 292 291 291 291 290 290 290 289 289 288 288 288 288 288 288 288 288 288 289 289 290 291 291 289 288 288 288 288 287 287 287 287 287
295 295 295 295 294 293 292 292 292 292 291 291 291 291 290 290 290 289 289 288 288 288 288 288 288 288 288 288 288 289 290 291 292 291 289 288 288 288 288 287 287 287 287
294 295 295 295 295 294 292 292 291 291 291 291 291 291 291 291 290 289 288 288 288 288 288 288 288 287 288 288 288 289 289 291 292 290 288 288 288 288 287 287 287 287 287
294 294 295 295 295 294 292 291 291 291 291 292 293 294 293 291 289 288 288 288 288 288 288 288 288 288 288 288 288 289 290 291 291 288 288 288 288 287 287 287 287 287 287
294 294 295 295 294 293 292 291 291 292 293 294 294 292 290 289 289 288 288 288 288 288 288 288 288 288 288 288 288 289 289 291 289 288 287 287 287 287 287 287 286 286 287
294 295 295 294 292 292 292 292 292 292 293 293 291 290 289 289 288 288 288 288 288 288 288 288 288 288 288 288 288 289 289 289 288 288 288 287 287 287 287 287 287 287 287
Wind_Speed
6 7 8 10 11 12 13 14 15 16 17 18 17 17 20 20 21 24 23 21 21 18 13 18 19 18 13 9 5 6 6 7 7 7 7 7 5 3 3 4 7 8 8
5 6 8 9 11 12 13 14 15 16 16 18 17 17 16 20 20 24 25 22 20 19 15 14 15 17 18 18 10 5 5 6 6 7 7 8 7 5 3 6 7 9 11
5 6 8 10 11 12 13 14 14 15 15 16 17 17 16 16 21 18 25 22 19 17 15 16 15 18 16 14 14 11 9 2 4 5 7 8 9 7 3 4 8 11 12
6 6 7 9 10 11 12 14 14 14 15 15 15 17 16 12 19 19 23 22 18 15 13 15 14 14 14 15 15 11 9 8 5 5 6 8 9 10 10 7 4 6 10
7 6 7 8 10 10 11 13 13 13 14 15 16 16 15 11 11 19 21 20 17 15 12 12 13 15 12 15 13 12 8 13 3 4 5 7 7 8 9 11 11 10 9
8 7 6 7 8 9 10 11 12 12 13 14 16 17 17 14 10 14 19 20 17 16 14 12 11 12 13 14 16 11 9 7 10 10 8 7 8 10 10 9 13 16 16
10 8 7 7 7 8 8 9 10 11 13 14 15 16 17 16 15 12 17 20 18 16 15 14 11 10 13 14 16 15 9 5 6 7 6 5 6 7 9 9 12 12 11
12 10 9 8 8 7 8 8 9 10 12 13 14 15 16 17 16 15 14 18 16 15 14 14 13 11 15 15 16 15 14 11 11 7 7 6 6 9 7 9 11 13 12
14 12 11 10 9 9 9 9 10 11 12 14 15 16 16 16 17 17 15 16 16 15 14 13 13 11 12 12 15 15 13 13 12 11 10 8 9 9 11 12 13 14 15
15 14 13 12 11 11 11 12 12 13 13 15 15 17 17 16 16 16 16 17 16 16 15 14 12 12 11 11 13 13 14 15 15 12 9 9 8 8 11 13 13 13 13
17 16 15 13 12 12 12 13 13 14 15 15 16 16 17 18 16 16 15 16 17 17 17 15 14 14 13 13 12 12 12 14 13 13 14 13 10 9 6 8 11 12 13
19 18 16 14 13 13 13 13 14 14 15 15 16 14 15 16 16 15 15 14 16 17 17 16 16 15 15 14 13 12 12 12 12 12 13 13 14 12 10 8 7 9 10
21 19 17 16 15 15 14 13 14 15 16 15 16 17 16 15 16 15 14 14 14 15 16 16 15 14 14 14 14 13 12 11 11 11 12 12 12 12 12 10 10 9 9
23 20 19 18 16 16 15 15 15 15 16 17 16 16 17 16 17 15 17 17 15 14 13 15 14 12 12 13 13 13 13 13 12 11 11 11 11 11 12 13 13 14 15
23 22 21 20 18 17 16 15 16 15 16 17 16 17 18 19 18 14 17 17 17 15 13 14 13 10 10 10 12 13 12 13 13 12 12 12 12 12 12 14 16 18 19
25 23 21 20 19 18 17 16 16 17 17 16 17 18 17 18 18 17 17 16 15 14 12 14 14 12 10 10 12 15 15 14 14 13 13 13 13 14 14 14 15 16 18
26 23 21 21 20 19 18 18 18 14 15 15 16 16 16 16 17 17 16 14 13 12 12 12 12 12 10 10 11 15 18 17 16 15 14 14 14 14 15 15 15 17 17
25 24 23 21 19 18 18 17 17 17 16 13 13 14 14 15 15 15 15 14 11 10 11 12 12 11 9 10 10 13 13 17 16 16 16 15 15 16 16 16 17 18 19
25 24 23 21 19 18 17 17 17 16 15 15 14 13 13 13 14 14 14 12 11 10 10 10 11 9 7 9 9 9 13 13 17 17 15 15 16 17 17 17 18 18 19
25 23 23 22 20 18 17 17 16 15 14 14 13 12 13 11 12 11 11 10 9 9 9 9 9 8 8 9 9 9 9 12 12 16 14 14 15 17 17 18 18 20 20
23 23 22 21 19 18 17 16 15 14 13 12 12 11 13 12 11 10 9 9 9 8 8 8 8 8 9 9 8 8 8 10 11 15 17 16 16 17 18 18 18 19 20
23 23 22 20 18 17 16 15 14 12 11 11 11 12 12 12 9 7 6 6 6 7 8 8 8 9 10 9 9 9 8 10 12 14 17 17 17 16 17 18 18 18 19
24 23 22 21 18 17 16 14 13 11 11 11 12 12 11 9 7 4 3 4 4 4 5 6 7 8 8 9 10 10 10 13 12 14 17 17 16 16 16 16 18 19 19
24 23 22 20 18 17 15 14 12 11 11 11 11 9 6 4 2 1 2 3 3 4 5 6 7 7 7 8 8 8 10 12 11 14 15 15 15 15 15 15 15 16 18
24 23 22 20 17 17 15 14 13 12 11 9 5 4 3 2 2 2 2 2 2 2 3 5 6 6 6 7 7 7 8 9 11 13 13 13 14 14 14 15 16 16 17
23 23 23 20 18 16 16 15 13 11 9 7 5 5 4 4 3 3 3 2 2 2 3 3 4 5 6 6 5 6 8 9 10 12 13 13 13 13 13 14 15 16 16
Wind_Direction
311 324 332 339 341 343 345 348 349 349 350 351 353 353 359 2 0 8 5 2 3 5 8 11 12 21 12 336 335 340 346 350 340 346 1 359 3 223 159 167 184 193 216
299 313 326 336 341 339 340 345 347 346 343 344 345 349 353 4 357 1 5 2 359 3 7 6 11 7 12 22 3 318 334 348 344 341 344 340 328 329 257 236 232 244 265
282 305 325 334 338 337 340 346 346 345 345 345 347 345 348 360 1 355 358 359 1 4 11 11 17 20 16 6 2 26 345 258 323 331 330 341 341 348 336 269 245 242 244
271 293 312 326 334 338 345 347 347 345 349 352 349 350 346 342 2 360 355 355 359 0 7 10 13 20 11 10 0 345 7 360 314 305 327 321 330 332 335 336 306 267 252
255 274 301 319 329 336 346 349 348 350 354 354 357 358 354 351 357 355 349 357 359 5 5 7 11 16 9 11 6 3 345 2 345 329 309 312 320 324 318 329 322 307 299
245 260 283 306 320 331 342 349 351 354 358 358 0 2 4 3 1 1 347 356 356 356 359 7 3 5 11 13 9 12 357 333 348 336 328 312 301 305 301 304 307 312 316
240 251 266 287 306 321 332 345 351 352 358 1 2 4 4 5 2 16 343 355 354 353 353 356 5 6 9 7 2 1 20 359 324 314 337 338 326 314 313 310 310 310 313
236 245 257 275 291 306 317 332 341 349 351 356 2 3 3 1 0 360 352 355 357 355 350 352 356 5 8 359 355 358 4 11 3 346 302 295 303 325 294 300 314 323 327
237 244 256 270 285 294 306 315 326 336 343 347 352 357 1 358 358 357 359 357 359 360 359 354 353 350 5 345 342 348 358 1 4 355 345 315 289 273 273 289 306 312 320
239 247 254 266 279 289 294 303 314 323 331 338 345 346 350 353 352 357 0 353 357 1 4 0 357 351 351 350 346 352 356 357 5 7 355 344 327 293 277 284 295 301 309
239 246 254 265 276 283 289 300 307 316 324 330 336 339 342 343 347 348 355 351 353 358 357 3 5 7 1 355 351 349 350 352 355 2 8 11 14 10 337 304 298 299 301
239 246 253 263 271 279 286 295 302 310 316 322 324 329 329 334 337 340 345 349 347 350 351 356 2 5 4 2 356 350 346 347 354 359 2 6 14 16 13 2 340 328 318
237 244 250 258 267 275 283 289 297 304 309 315 317 322 326 329 334 333 338 347 345 346 346 346 349 355 3 7 6 358 356 352 349 354 360 2 360 1 5 4 2 354 346
236 241 247 254 262 270 280 289 297 304 306 309 312 316 319 326 329 334 341 345 343 347 342 337 344 349 352 4 6 7 1 1 356 351 346 346 347 348 344 338 339 336 331
239 241 245 251 258 266 275 283 290 297 301 305 309 312 319 325 330 335 330 337 339 343 337 327 334 340 352 11 11 10 7 3 2 356 351 345 339 335 333 328 328 327 324
241 243 246 251 256 262 270 278 285 293 297 303 306 307 312 315 319 319 328 335 335 335 332 325 336 346 352 353 1 10 11 9 5 1 359 353 350 346 342 339 333 328 325
242 246 248 252 256 261 268 276 283 282 289 294 298 303 308 313 319 324 331 336 335 333 328 324 334 345 353 341 351 1 10 8 4 3 360 354 352 349 345 345 344 339 336
242 244 248 252 257 261 267 273 280 288 294 296 300 305 311 317 322 326 335 341 337 334 333 333 342 352 355 341 347 354 349 4 7 3 360 354 351 352 349 347 347 345 343
242 244 249 252 255 259 264 270 276 284 292 298 304 307 310 317 324 331 337 342 341 342 343 340 347 355 351 339 348 349 359 352 4 2 359 357 353 350 352 351 347 348 345
241 241 244 249 253 258 262 267 274 281 288 296 303 305 309 320 326 335 342 347 350 354 350 352 357 353 346 344 350 353 356 357 354 1 3 1 358 354 351 351 350 347 348
239 239 243 246 249 254 258 263 268 275 283 292 297 300 306 320 326 337 342 352 352 357 357 360 359 360 356 356 352 352 358 0 359 2 5 3 359 356 352 351 350 349 349
234 234 238 243 246 251 255 256 260 267 276 284 290 296 301 304 313 323 337 358 1 357 356 359 5 7 3 1 359 357 355 357 1 2 4 360 355 355 353 351 350 351 351
229 230 233 236 241 246 245 244 249 256 267 279 288 293 294 294 300 307 340 15 18 8 3 3 13 16 7 2 360 359 358 354 357 359 357 355 353 352 354 353 352 352 353
227 230 229 231 238 235 232 234 240 251 262 273 280 279 277 289 286 308 38 48 29 14 11 12 15 21 17 12 8 5 358 354 358 356 353 352 352 352 352 354 356 356 355
225 227 223 227 232 225 227 231 237 245 256 264 260 240 219 166 148 120 86 82 66 28 20 18 16 20 22 16 12 1 0 360 354 356 357 356 355 355 356 356 358 1 0
225 222 219 222 227 227 224 224 231 236 238 231 207 194 169 158 143 128 112 85 53 25 14 11 12 20 22 14 5 3 358 357 355 358 359 359 359 0 3 5 4 4 5